Location: Burjasot
(39.5167°N, 0.4167°W)
Time: 08:40:30
(UTC+02:00)

ISS - Visible Passes

Search period start: 30 March 2017 00:00
Search period end: 09 April 2017 00:00
Orbit: 399 x 409 km, 51.6° (Epoch: 30 March)

Date Brightness Start Highest point End Pass type
(mag) Time Alt. Az. Time Alt. Az. Time Alt. Az.
30 Mar -3.8 20:46:42 10° SW 20:49:57 84° NW 20:53:13 10° NE visible
30 Mar -1.2 22:24:39 10° WNW 22:26:50 16° NNW 22:28:01 14° N visible
31 Mar -1.5 21:31:34 10° W 21:34:14 23° NNW 21:36:56 10° NNE visible
01 Apr -0.9 22:17:34 10° NW 22:18:55 12° NNW 22:20:16 10° NNE visible
02 Apr -1.0 21:24:14 10° NW 21:26:13 15° NNW 21:28:13 10° NNE visible
03 Apr -0.8 22:10:39 10° N 22:11:02 10° N 22:11:25 10° N visible
04 Apr -0.9 21:17:09 10° NNW 21:18:15 11° N 21:19:22 10° N visible
04 Apr -0.7 22:54:37 10° NNW 22:55:11 11° N 22:55:11 11° N visible
05 Apr -0.9 22:02:33 10° N 22:03:07 10° N 22:03:40 10° NNE visible
06 Apr -1.1 22:45:44 10° NNW 22:47:03 15° N 22:47:03 15° N visible
07 Apr -1.2 21:53:37 10° NNW 21:55:06 12° NNE 21:56:36 10° NE visible
07 Apr -0.2 23:29:08 10° NW 23:29:17 11° NW 23:29:17 11° NW visible
08 Apr -1.1 21:01:31 10° N 21:02:18 11° N 21:03:04 10° NNE visible
08 Apr -1.8 22:36:52 10° NNW 22:38:52 23° N 22:38:52 23° N visible
